Date String (YYYY-MM-DD hh:mm:ss) UTC,Instrument flags,Ambient pressure (hPa),Sample flow (lpm),Bypass flow (lpm),Sample temperature (°C),Ambient temperature (°C),ASC tube jacket temperature (°C),LED temperature (°C),Box temperature (°C),Sample RH (%),Span deviation,Mass concentration (μg/m³),Mass concentration (μg/m³),Mass concentration (μg/m³)
DateTimeUTC,F1_M11,P_M11,Q1_M11,Q2_M11,T1_M11,T2_M11,T3_M11,T4_M11,T5_M11,U1_M11,ZSPAN_M11,X0_M11,X2_M11,X1_M11
2022-02-13 19:00:00,,0829.5,5.00,0.00,24.1,23.1,00.0,33.1,25.9,07.0,0000.0,0002.19,0000.70,0000.54
2022-02-13 19:01:00,,0829.6,4.98,0.00,24.1,23.1,00.0,33.1,25.9,06.1,0000.0,0002.08,0000.67,0000.54
2022-02-13 19:02:00,,0829.6,5.01,0.00,24.2,23.1,00.0,33.1,25.9,05.6,0000.0,0002.11,0000.68,0000.55
2022-02-13 19:03:00,,0829.6,5.01,0.00,24.2,23.1,00.0,33.1,25.9,06.0,0000.0,0002.12,0000.69,0000.55
2022-02-13 19:04:00,,0829.6,5.00,0.00,24.2,23.1,00.0,33.1,25.9,06.7,0000.0,0002.14,0000.70,0000.56
2022-02-13 19:05:00,,0829.6,4.99,0.00,24.2,23.2,00.0,33.1,26.0,06.9,0000.0,0002.09,0000.69,0000.56
2022-02-13 19:06:00,,0829.6,5.01,0.00,24.2,23.1,00.0,33.1,26.0,06.7,0000.0,0002.08,0000.69,0000.56
2022-02-13 19:07:00,,0829.6,4.99,0.00,24.2,23.1,00.0,33.1,26.0,07.0,0000.0,0002.06,0000.69,0000.56
2022-02-13 19:08:00,,0829.6,5.01,0.00,24.2,23.2,00.0,33.1,26.0,06.8,0000.0,0002.11,0000.72,0000.57
2022-02-13 19:09:00,,0829.5,5.00,0.00,24.2,23.2,00.0,33.1,26.0,06.7,0000.0,0001.84,0000.74,0000.57
2022-02-13 19:10:00,,0829.5,5.00,0.00,24.3,23.2,00.0,33.1,26.0,06.8,0000.0,0001.02,0000.74,0000.57
2022-02-13 19:11:00,,0829.5,5.00,0.00,24.3,23.3,00.0,33.1,26.1,06.5,0000.0,0001.01,0000.74,0000.57
2022-02-13 19:12:00,,0829.5,4.99,0.00,24.3,23.3,00.0,33.2,26.1,06.0,0000.0,0001.03,0000.76,0000.59
2022-02-13 19:13:00,,0829.5,5.02,0.00,24.3,23.3,00.0,33.2,26.0,05.9,0000.0,0001.06,0000.77,0000.59
2022-02-13 19:14:00,,0829.5,5.00,0.00,24.3,23.3,00.0,33.2,26.0,06.5,0000.0,0001.04,0000.76,0000.59
2022-02-13 19:15:00,,0829.5,4.99,0.00,24.3,23.3,00.0,33.2,26.1,06.1,0000.0,0001.00,0000.74,0000.59
2022-02-13 19:16:00,,0829.5,5.01,0.00,24.3,23.3,00.0,33.2,26.1,06.5,0000.0,0001.03,0000.75,0000.60
2022-02-13 19:17:00,,0829.5,4.98,0.00,24.3,23.3,00.0,33.2,26.1,05.7,0000.0,0001.21,0000.77,0000.60
2022-02-13 19:18:00,,0829.5,5.01,0.00,24.3,23.3,00.0,33.2,26.1,05.7,0000.0,0002.74,0000.79,0000.61
2022-02-13 19:19:00,,0829.5,5.00,0.00,24.3,23.3,00.0,33.2,26.1,06.1,0000.0,0002.69,0000.76,0000.61
2022-02-13 19:20:00,,0829.5,5.00,0.00,24.4,23.3,00.0,33.2,26.1,06.0,0000.0,0002.69,0000.76,0000.61
2022-02-13 19:21:00,,0829.5,4.98,0.00,24.4,23.4,00.0,33.2,26.1,06.5,0000.0,0002.76,0000.79,0000.62
2022-02-13 19:22:00,,0829.5,5.02,0.00,24.4,23.3,00.0,33.2,26.2,06.9,0000.0,0002.76,0000.79,0000.62
2022-02-13 19:23:00,,0829.4,4.99,0.00,24.4,23.3,00.0,33.3,26.2,06.6,0000.0,0002.79,0000.80,0000.62
2022-02-13 19:24:00,,0829.4,5.01,0.00,24.4,23.4,00.0,33.3,26.2,06.7,0000.0,0002.80,0000.80,0000.62
2022-02-13 19:25:00,,0829.4,4.99,0.00,24.4,23.4,00.0,33.3,26.2,06.8,0000.0,0002.78,0000.80,0000.62
2022-02-13 19:26:00,,0829.3,5.01,0.00,24.4,23.4,00.0,33.3,26.3,07.1,0000.0,0002.87,0000.82,0000.62
2022-02-13 19:27:00,,0829.4,4.98,0.00,24.4,23.4,00.0,33.3,26.3,06.3,0000.0,0003.10,0000.85,0000.63
2022-02-13 19:28:00,,0829.4,5.00,0.00,24.5,23.5,00.0,33.3,26.3,05.8,0000.0,0003.16,0000.85,0000.63
2022-02-13 19:29:00,,0829.3,5.01,0.00,24.5,23.5,00.0,33.3,26.3,06.4,0000.0,0001.67,0000.84,0000.63
2022-02-13 19:30:00,,0829.3,4.98,0.00,24.5,23.4,00.0,33.3,26.3,06.1,0000.0,0001.67,0000.84,0000.62
2022-02-13 19:31:00,,0829.2,5.01,0.00,24.5,23.4,00.0,33.3,26.3,06.5,0000.0,0001.66,0000.84,0000.62
2022-02-13 19:32:00,,0829.2,4.99,0.00,24.5,23.5,00.0,33.3,26.3,06.1,0000.0,0001.70,0000.85,0000.62
2022-02-13 19:33:00,,0829.4,5.00,0.00,24.5,23.5,00.0,33.4,26.3,06.4,0000.0,0001.72,0000.85,0000.62
2022-02-13 19:34:00,,0829.2,5.00,0.00,24.5,23.5,00.0,33.4,26.3,06.8,0000.0,0001.76,0000.86,0000.62
2022-02-13 19:35:00,,0829.2,4.99,0.00,24.5,23.5,00.0,33.4,26.3,06.6,0000.0,0001.73,0000.86,0000.62
2022-02-13 19:36:00,,0829.2,5.01,0.00,24.5,23.5,00.0,33.4,26.3,05.7,0000.0,0001.75,0000.86,0000.63
2022-02-13 19:37:00,,0829.2,5.01,0.00,24.5,23.5,00.0,33.4,26.3,06.3,0000.0,0001.71,0000.86,0000.64
2022-02-13 19:38:00,,0829.2,4.99,0.00,24.6,23.5,00.0,33.4,26.3,06.9,0000.0,0001.57,0000.88,0000.66
2022-02-13 19:39:00,,0829.2,5.01,0.00,24.6,23.5,00.0,33.4,26.4,07.0,0000.0,0001.30,0000.88,0000.68
2022-02-13 19:40:00,,0829.2,4.98,0.00,24.6,23.5,00.0,33.4,26.4,06.9,0000.0,0001.39,0000.92,0000.70
2022-02-13 19:41:00,,0829.2,5.00,0.00,24.6,23.5,00.0,33.4,26.4,06.7,0000.0,0001.47,0000.95,0000.71
2022-02-13 19:42:00,,0829.2,5.00,0.00,24.6,23.5,00.0,33.4,26.4,07.2,0000.0,0001.52,0000.97,0000.71
2022-02-13 19:43:00,,0829.3,5.01,0.00,24.6,23.5,00.0,33.5,26.3,06.7,0000.0,0001.42,0000.94,0000.73
2022-02-13 19:44:00,,0829.2,4.99,0.00,24.6,23.5,00.0,33.5,26.3,06.8,0000.0,0001.40,0000.94,0000.74
2022-02-13 19:45:00,,0829.2,5.00,0.00,24.6,23.5,00.0,33.5,26.3,06.7,0000.0,0001.32,0000.92,0000.74
2022-02-13 19:46:00,,0829.2,4.99,0.00,24.6,23.5,00.0,33.5,26.3,06.5,0000.0,0001.35,0000.93,0000.74
2022-02-13 19:47:00,,0829.2,5.00,0.00,24.6,23.5,00.0,33.5,26.3,06.2,0000.0,0001.37,0000.94,0000.75
2022-02-13 19:48:00,,0829.2,5.01,0.00,24.6,23.5,00.0,33.5,26.4,06.5,0000.0,0001.39,0000.95,0000.74
2022-02-13 19:49:00,,0829.2,4.99,0.00,24.6,23.5,00.0,33.5,26.4,06.7,0000.0,0001.92,0000.94,0000.73
2022-02-13 19:50:00,,0829.2,5.02,0.00,24.6,23.5,00.0,33.5,26.4,06.9,0000.0,0002.49,0000.95,0000.74
2022-02-13 19:51:00,,0829.2,4.98,0.00,24.6,23.6,00.0,33.5,26.3,06.8,0000.0,0002.41,0000.93,0000.74
2022-02-13 19:52:00,,0829.1,5.00,0.00,24.6,23.5,00.0,33.5,26.4,06.2,0000.0,0002.32,0000.89,0000.74
2022-02-13 19:53:00,,0829.1,5.00,0.00,24.6,23.5,00.0,33.5,26.4,06.0,0000.0,0002.23,0000.85,0000.72
2022-02-13 19:54:00,,0829.2,5.00,0.00,24.6,23.5,00.0,33.5,26.3,06.1,0000.0,0002.23,0000.83,0000.70
2022-02-13 19:55:00,,0829.1,5.00,0.00,24.6,23.5,00.0,33.5,26.4,06.8,0000.0,0002.34,0000.83,0000.68
2022-02-13 19:56:00,,0829.1,4.99,0.00,24.6,23.5,00.0,33.5,26.3,06.2,0000.0,0002.33,0000.82,0000.67
2022-02-13 19:57:00,,0829.2,5.01,0.00,24.6,23.6,00.0,33.5,26.4,06.2,0000.0,0002.86,0000.80,0000.66
2022-02-13 19:58:00,,0829.1,5.01,0.00,24.6,23.6,00.0,33.5,26.4,06.2,0000.0,0003.60,0000.78,0000.64
2022-02-13 19:59:00,,0829.1,4.99,0.00,24.6,23.6,00.0,33.5,26.4,06.6,0000.0,0003.62,0000.77,0000.63
